GW3397 Weather Reports


Display with metric or nautical units.
time (UTC)temp
F
wind
direction
speed
MPH
gust
MPH
rain 1hr
in
rain 24hr
in
rain mn
in
humidity
%
barometer
mb
20260905084415 60 293 0.0 0.0 0.00 0.00 0.00 96 1016.4
20260905083910 60 291 0.0 0.0 0.00 0.00 0.00 96 1016.4
20260905083407 61 298 0.0 1.0 0.00 0.00 0.00 96 1016.4
20260905082902 61 295 0.0 1.0 0.00 0.00 0.00 95 1016.7
20260905082357 61 305 0.0 1.0 0.00 0.00 0.00 95 1016.6
20260905081847 62 249 1.0 1.0 0.00 0.00 0.00 95 1016.4
20260905081342 62 279 0.0 0.0 0.00 0.00 0.00 95 1016.4
20260905080840 62 301 0.0 0.0 0.00 0.00 0.00 95 1016.7
20260905080335 62 258 0.0 0.0 0.00 0.00 0.00 95 1016.6
20260905075833 62 240 0.0 0.0 0.00 0.00 0.00 95 1016.6
20260905075328 63 286 0.0 0.0 0.00 0.00 0.00 95 1016.6
20260905074827 63 305 1.0 1.0 0.00 0.00 0.00 95 1016.4
20260905074323 63 278 0.0 0.0 0.00 0.00 0.00 95 1016.6
20260905073819 63 278 0.0 0.0 0.00 0.00 0.00 95 1016.4
20260905073313 63 296 0.0 0.0 0.00 0.00 0.00 95 1016.6
20260905072808 63 259 0.0 0.0 0.00 0.00 0.00 95 1016.7
20260905072306 63 255 0.0 1.0 0.00 0.00 0.00 95 1016.6
20260905071759 63 315 0.0 1.0 0.00 0.00 0.00 95 1016.6
20260905071255 63 293 0.0 1.0 0.00 0.00 0.00 95 1016.6
20260905070749 63 278 0.0 0.0 0.00 0.00 0.00 95 1016.6
20260905070246 63 234 1.0 1.0 0.00 0.00 0.00 95 1016.9
20260905065745 63 253 0.0 1.0 0.00 0.00 0.00 95 1016.9
20260905065239 63 277 0.0 1.0 0.00 0.00 0.00 95 1016.9
20260905064734 63 277 0.0 0.0 0.00 0.00 0.00 95 1016.7
20260905064230 63 268 0.0 0.0 0.00 0.00 0.00 95 1017.0
20260905063728 63 260 0.0 1.0 0.00 0.00 0.00 94 1016.8
20260905063224 63 269 0.0 1.0 0.00 0.00 0.00 94 1016.9
20260905062720 63 290 0.0 0.0 0.00 0.00 0.00 94 1016.8
20260905062219 63 282 0.0 0.0 0.00 0.00 0.00 94 1016.9
20260905061714 64 284 0.0 0.0 0.00 0.00 0.00 94 1016.9
20260905061209 64 303 0.0 0.0 0.00 0.00 0.00 94 1017.0
20260905060704 64 293 1.0 2.0 0.00 0.00 0.00 94 1017.0
20260905060201 64 284 0.0 0.0 0.00 0.00 0.00 93 1017.0
20260905055659 64 293 0.0 1.0 0.00 0.00 0.00 93 1017.1
20260905055154 64 257 0.0 1.0 0.00 0.00 0.00 94 1017.0
20260905054649 64 281 0.0 2.0 0.00 0.00 0.00 94 1017.2
20260905054145 64 290 0.0 0.0 0.00 0.00 0.00 94 1016.9
20260905053645 63 277 0.0 0.0 0.00 0.00 0.00 94 1017.0
20260905053140 63 290 1.0 1.0 0.00 0.00 0.00 94 1017.0
20260905052639 63 254 0.0 1.0 0.00 0.00 0.00 94 1016.8
20260905052134 64 269 0.0 1.0 0.00 0.00 0.00 94 1016.9
20260905051629 64 267 0.0 1.0 0.00 0.00 0.00 93 1017.1
20260905051126 64 279 1.0 1.0 0.00 0.00 0.00 93 1017.2
20260905050622 64 281 1.0 1.0 0.00 0.00 0.00 93 1017.2
20260905050119 64 281 0.0 0.0 0.00 0.00 0.00 93 1017.3
20260905045618 64 285 0.0 0.0 0.00 0.00 0.00 92 1017.4
20260905045114 63 222 1.0 1.0 0.00 0.00 0.00 92 1017.1
20260905044613 63 231 1.0 2.0 0.00 0.00 0.00 93 1017.2
20260905044108 63 232 1.0 1.0 0.00 0.00 0.00 93 1017.3
20260905043607 63 240 0.0 0.0 0.00 0.00 0.00 93 1017.2
20260905043103 63 244 0.0 0.0 0.00 0.00 0.00 93 1017.3
20260905042601 63 255 0.0 0.0 0.00 0.00 0.00 92 1017.1
20260905042057 63 277 0.0 1.0 0.00 0.00 0.00 92 1017.2
20260905041552 64 272 0.0 1.0 0.00 0.00 0.00 91 1017.3
20260905041047 64 277 0.0 0.0 0.00 0.00 0.00 90 1017.4
20260905040547 64 289 0.0 1.0 0.00 0.00 0.00 90 1017.3
20260905040045 64 258 0.0 0.0 0.00 0.00 0.00 90 1017.1
20260905035541 64 241 0.0 1.0 0.00 0.00 0.00 90 1017.3
20260905035038 64 274 0.0 1.0 0.00 0.00 0.00 89 1017.4
20260905034534 64 255 0.0 1.0 0.00 0.00 0.00 89 1017.5
20260905034033 64 293 0.0 0.0 0.00 0.00 0.00 89 1017.7
20260905033527 64 276 0.0 0.0 0.00 0.00 0.00 89 1017.3
20260905033023 64 285 0.0 1.0 0.00 0.00 0.00 89 1017.6
20260905032517 64 290 1.0 2.0 0.00 0.00 0.00 89 1017.2
20260905032013 64 280 0.0 1.0 0.00 0.00 0.00 89 1017.3
20260905031508 64 262 0.0 1.0 0.00 0.00 0.00 89 1017.2
20260905031003 64 295 1.0 2.0 0.00 0.00 0.00 89 1017.3
20260905030458 64 238 1.0 2.0 0.00 0.00 0.00 89 1017.3
20260905025957 64 281 0.0 1.0 0.00 0.00 0.00 89 1017.3
20260905025453 64 265 0.0 1.0 0.00 0.00 0.00 89 1017.5
20260905024949 64 285 1.0 1.0 0.00 0.00 0.00 89 1017.5
20260905024444 64 284 0.0 1.0 0.00 0.00 0.00 89 1017.6
20260905023939 63 307 1.0 2.0 0.00 0.00 0.00 90 1017.5
20260905023434 63 275 0.0 1.0 0.00 0.00 0.00 90 1017.4
20260905022933 63 245 0.0 3.0 0.00 0.00 0.00 90 1017.4
20260905022429 63 272 0.0 0.0 0.00 0.00 0.00 90 1017.5
20260905021924 63 249 0.0 1.0 0.00 0.00 0.00 89 1017.4
20260905021424 63 223 1.0 1.0 0.00 0.00 0.00 88 1017.6
20260905020919 64 236 0.0 1.0 0.00 0.00 0.00 88 1017.7
20260905020418 64 231 1.0 1.0 0.00 0.00 0.00 88 1017.7
20260905015918 64 214 1.0 1.0 0.00 0.00 0.00 87 1017.4
20260905015416 64 272 0.0 1.0 0.00 0.00 0.00 88 1017.6
20260905014916 64 264 1.0 1.0 0.00 0.00 0.00 88 1017.4
20260905014411 64 298 1.0 2.0 0.00 0.00 0.00 88 1017.6
20260905013906 63 244 0.0 1.0 0.00 0.00 0.00 88 1017.6
20260905013403 63 265 0.0 1.0 0.00 0.00 0.00 88 1017.8
20260905012858 64 251 0.0 1.0 0.00 0.00 0.00 87 1017.7
20260905012353 64 266 0.0 1.0 0.00 0.00 0.00 87 1017.6
20260905011850 64 277 0.0 0.0 0.00 0.00 0.00 86 1017.5
20260905011345 64 263 0.0 0.0 0.00 0.00 0.00 85 1017.7
20260905010840 65 260 0.0 0.0 0.00 0.00 0.00 84 1017.7
20260905010330 65 258 0.0 1.0 0.00 0.00 0.00 84 1017.6
20260905005826 65 250 0.0 1.0 0.00 0.00 0.00 83 1017.3
20260905005322 66 284 0.0 1.0 0.00 0.00 0.00 82 1017.4
20260905004816 66 249 0.0 1.0 0.00 0.00 0.00 81 1017.3
20260905004311 66 238 0.0 0.0 0.00 0.00 0.00 81 1017.5
20260905003806 66 271 0.0 1.0 0.00 0.00 0.00 81 1017.5
20260905003302 67 274 1.0 2.0 0.00 0.00 0.00 81 1017.6
20260905002757 67 254 0.0 1.0 0.00 0.00 0.00 80 1017.4
20260905002257 67 252 1.0 1.0 0.00 0.00 0.00 80 1017.4
20260905001752 67 258 0.0 1.0 0.00 0.00 0.00 79 1017.1
20260905001252 67 228 2.0 3.0 0.00 0.00 0.00 79 1017.3
20260905000747 67 293 0.0 1.0 0.00 0.00 0.00 78 1017.1
20260905000243 67 264 0.0 1.0 0.00 0.00 0.00 78 1017.3
20260904235738 68 277 0.0 1.0 0.00 0.00 0.00 77 1017.1
20260904235232 68 297 0.0 1.0 0.00 0.00 0.00 77 1017.2
20260904234726 68 300 1.0 1.0 0.00 0.00 0.00 77 1017.0
20260904234222 68 262 1.0 1.0 0.00 0.00 0.00 77 1017.2
20260904233718 68 235 3.0 5.0 0.00 0.00 0.00 76 1017.0
20260904233214 68 245 2.0 3.0 0.00 0.00 0.00 76 1016.9
20260904232711 68 294 1.0 2.0 0.00 0.00 0.00 75 1016.8
20260904232207 69 294 4.0 5.0 0.00 0.00 0.00 75 1016.9
20260904231701 69 308 5.0 6.0 0.00 0.00 0.00 74 1016.7
20260904231156 69 306 4.0 6.0 0.00 0.00 0.00 74 1016.9
20260904230651 70 323 2.0 3.0 0.00 0.00 0.00 75 1016.9
20260904230146 70 299 3.0 5.0 0.00 0.00 0.00 74 1016.8
20260904225644 71 281 3.0 3.0 0.00 0.00 0.00 74 1016.7
20260904225139 72 273 2.0 5.0 0.00 0.00 0.00 71 1016.7
20260904224633 72 309 2.0 7.0 0.00 0.00 0.00 71 1016.8
20260904224128 72 339 5.0 7.0 0.00 0.00 0.00 72 1016.9
20260904223627 73 319 4.0 6.0 0.00 0.00 0.00 70 1016.8
20260904223122 73 300 3.0 3.0 0.00 0.00 0.00 70 1016.6
20260904222619 73 287 1.0 5.0 0.00 0.00 0.00 69 1016.7
20260904222113 73 288 1.0 9.0 0.00 0.00 0.00 67 1016.5
20260904221608 73 308 4.0 9.0 0.00 0.00 0.00 66 1016.5
20260904221107 73 290 4.0 7.0 0.00 0.00 0.00 66 1016.4
20260904220602 74 331 5.0 8.0 0.00 0.00 0.00 65 1016.5
20260904220058 74 312 4.0 8.0 0.00 0.00 0.00 66 1016.5
20260904215558 74 346 6.0 8.0 0.00 0.00 0.00 65 1016.4
20260904215054 75 317 7.0 10.0 0.00 0.00 0.00 64 1016.3
20260904214549 75 290 8.0 13.0 0.00 0.00 0.00 63 1016.5
20260904214044 75 321 7.0 10.0 0.00 0.00 0.00 64 1016.6
20260904213542 75 297 8.0 14.0 0.00 0.00 0.00 63 1016.2
20260904213039 75 304 7.0 10.0 0.00 0.00 0.00 64 1016.4
20260904212538 75 295 7.0 11.0 0.00 0.00 0.00 63 1016.4
20260904212034 75 339 6.0 13.0 0.00 0.00 0.00 63 1016.5
20260904211533 75 288 7.0 13.0 0.00 0.00 0.00 63 1016.2
20260904211029 75 293 6.0 14.0 0.00 0.00 0.00 63 1016.4
20260904210528 76 305 6.0 13.0 0.00 0.00 0.00 63 1016.4
20260904210025 76 326 9.0 15.0 0.00 0.00 0.00 63 1016.4
20260904205520 76 300 9.0 10.0 0.00 0.00 0.00 64 1016.5
20260904205017 76 255 3.0 6.0 0.00 0.00 0.00 66 1016.5
20260904204512 76 290 7.0 10.0 0.00 0.00 0.00 64 1016.8
20260904204008 76 261 5.0 10.0 0.00 0.00 0.00 65 1016.7
20260904203504 75 271 7.0 11.0 0.00 0.00 0.00 65 1016.8
20260904203000 75 270 12.0 15.0 0.00 0.00 0.00 64 1016.7
20260904202455 75 295 7.0 18.0 0.00 0.00 0.00 64 1016.7
20260904201951 76 280 4.0 7.0 0.00 0.00 0.00 65 1016.6
20260904201446 76 301 6.0 14.0 0.00 0.00 0.00 64 1016.6
20260904200942 77 306 5.0 8.0 0.00 0.00 0.00 66 1016.7
20260904200440 76 342 7.0 9.0 0.00 0.00 0.00 64 1016.8
20260904195935 76 295 6.0 14.0 0.00 0.00 0.00 64 1016.5
20260904195433 76 270 7.0 16.0 0.00 0.00 0.00 63 1016.7
20260904194928 77 282 8.0 9.0 0.00 0.00 0.00 63 1016.6
20260904194427 77 295 3.0 7.0 0.00 0.00 0.00 64 1016.5
20260904193923 77 309 6.0 8.0 0.00 0.00 0.00 65 1016.8
20260904193418 77 280 7.0 8.0 0.00 0.00 0.00 63 1016.8
20260904192914 77 338 6.0 9.0 0.00 0.00 0.00 64 1016.8
20260904192409 78 282 6.0 11.0 0.00 0.00 0.00 63 1016.8
20260904191905 78 284 4.0 5.0 0.00 0.00 0.00 66 1017.0
20260904191401 77 279 5.0 13.0 0.00 0.00 0.00 64 1016.5
20260904190857 77 324 3.0 9.0 0.00 0.00 0.00 64 1016.9
20260904190352 78 305 8.0 13.0 0.00 0.00 0.00 63 1016.9
20260904185849 77 230 5.0 13.0 0.00 0.00 0.00 65 1016.9
20260904185344 77 319 7.0 11.0 0.00 0.00 0.00 66 1016.9
20260904184843 77 314 7.0 10.0 0.00 0.00 0.00 65 1016.8
20260904184339 76 334 5.0 7.0 0.00 0.00 0.00 65 1017.1
20260904183834 77 311 4.0 9.0 0.00 0.00 0.00 68 1017.0
20260904183329 78 310 8.0 14.0 0.00 0.00 0.00 66 1017.1
20260904182824 77 13 9.0 11.0 0.00 0.00 0.00 66 1017.0
20260904182319 77 320 7.0 9.0 0.00 0.00 0.00 67 1017.1
20260904181815 77 279 10.0 16.0 0.00 0.00 0.00 66 1017.2
20260904181314 77 335 8.0 13.0 0.00 0.00 0.00 67 1017.1
20260904180810 78 307 8.0 17.0 0.00 0.00 0.00 66 1017.2
20260904180305 77 271 5.0 10.0 0.00 0.00 0.00 68 1017.3
20260904175804 77 310 6.0 10.0 0.00 0.00 0.00 67 1017.2
20260904175305 77 295 7.0 10.0 0.00 0.00 0.00 70 1017.2
20260904174758 77 328 5.0 7.0 0.00 0.00 0.00 69 1017.3
20260904174254 77 283 8.0 13.0 0.00 0.00 0.00 70 1017.4
20260904173749 77 308 7.0 9.0 0.00 0.00 0.00 71 1017.4
20260904173244 77 265 3.0 8.0 0.00 0.00 0.00 73 1017.6
20260904172741 76 9 7.0 9.0 0.00 0.00 0.00 73 1017.7
20260904172239 76 319 4.0 11.0 0.00 0.00 0.00 72 1017.6
20260904171734 76 320 5.0 8.0 0.00 0.00 0.00 74 1017.9
20260904171229 75 347 4.0 10.0 0.00 0.00 0.00 76 1017.9
20260904170725 73 321 3.0 9.0 0.00 0.00 0.00 76 1018.0
20260904170221 74 304 3.0 8.0 0.00 0.00 0.00 75 1017.7
20260904165720 74 307 5.0 8.0 0.00 0.00 0.00 76 1017.9
20260904165215 75 298 7.0 9.0 0.00 0.00 0.00 74 1017.5
20260904164709 75 223 3.0 10.0 0.00 0.00 0.00 71 1017.6
20260904164204 75 305 7.0 8.0 0.00 0.00 0.00 73 1017.9
20260904163700 75 302 4.0 7.0 0.00 0.00 0.00 73 1017.6
20260904163155 76 333 3.0 7.0 0.00 0.00 0.00 74 1017.7
20260904162654 76 356 5.0 8.0 0.00 0.00 0.00 72 1017.8
20260904162149 75 300 5.0 7.0 0.00 0.00 0.00 72 1017.9
20260904161645 76 9 7.0 8.0 0.00 0.00 0.00 71 1017.9
20260904161140 75 339 4.0 5.0 0.00 0.00 0.00 76 1017.9
20260904160636 74 281 3.0 7.0 0.00 0.00 0.00 75 1018.1
20260904160131 75 288 5.0 10.0 0.00 0.00 0.00 75 1018.0
20260904155626 75 240 6.0 9.0 0.00 0.00 0.00 75 1018.2
20260904155120 75 321 7.0 8.0 0.00 0.00 0.00 76 1018.1
20260904154614 75 340 5.0 8.0 0.00 0.00 0.00 75 1018.1
20260904154113 74 306 4.0 11.0 0.00 0.00 0.00 73 1018.1
20260904153608 74 4 6.0 7.0 0.00 0.00 0.00 76 1018.2
20260904153104 74 304 5.0 9.0 0.00 0.00 0.00 76 1018.3
20260904152600 74 44 6.0 8.0 0.00 0.00 0.00 77 1018.5
20260904152055 74 297 3.0 3.0 0.00 0.00 0.00 79 1018.5
20260904151550 73 320 5.0 11.0 0.00 0.00 0.00 77 1018.3
20260904151049 74 339 3.0 8.0 0.00 0.00 0.00 78 1018.2
20260904150544 74 292 1.0 3.0 0.00 0.00 0.00 81 1018.2
20260904150039 74 321 4.0 6.0 0.00 0.00 0.00 80 1018.6
20260904145538 73 299 1.0 5.0 0.00 0.00 0.00 82 1018.6
20260904145033 73 294 5.0 5.0 0.00 0.00 0.00 83 1018.7
20260904144529 73 350 4.0 6.0 0.00 0.00 0.00 83 1018.5
20260904144025 72 355 3.0 8.0 0.00 0.00 0.00 84 1018.9
20260904143520 72 291 6.0 7.0 0.00 0.00 0.00 84 1018.6
20260904143017 71 312 5.0 7.0 0.00 0.00 0.00 85 1018.6
20260904142514 72 332 5.0 7.0 0.00 0.00 0.00 84 1018.9
20260904142013 72 318 3.0 8.0 0.00 0.00 0.00 85 1019.0
20260904141509 72 316 4.0 8.0 0.00 0.00 0.00 87 1018.6
20260904141004 72 320 6.0 8.0 0.00 0.00 0.00 87 1018.7
20260904140459 71 318 3.0 10.0 0.00 0.00 0.00 88 1018.5
20260904135957 71 329 3.0 5.0 0.00 0.00 0.00 88 1018.3
20260904135452 71 282 5.0 8.0 0.00 0.00 0.00 88 1018.3
20260904134948 70 320 5.0 7.0 0.00 0.00 0.00 90 1018.5
20260904134443 70 310 6.0 9.0 0.00 0.00 0.00 91 1018.4
20260904133937 70 323 6.0 8.0 0.00 0.00 0.00 91 1018.3
20260904133432 70 322 4.0 6.0 0.00 0.00 0.00 92 1018.3
20260904132928 69 292 6.0 8.0 0.00 0.00 0.00 91 1018.4
20260904132423 70 347 6.0 9.0 0.00 0.00 0.00 90 1018.3
20260904131922 70 336 7.0 8.0 0.00 0.00 0.00 91 1018.7
20260904131418 69 289 3.0 10.0 0.00 0.00 0.00 91 1018.6
20260904130914 69 321 5.0 8.0 0.00 0.00 0.00 92 1018.4
20260904130412 69 277 4.0 5.0 0.00 0.00 0.00 92 1018.4
20260904125907 69 283 3.0 8.0 0.00 0.00 0.00 92 1018.4
20260904125404 69 306 4.0 7.0 0.00 0.00 0.00 93 1018.4
20260904124903 68 299 6.0 7.0 0.00 0.00 0.00 93 1018.5
20260904124400 69 4 2.0 3.0 0.00 0.00 0.00 93 1018.5
20260904123855 68 307 3.0 3.0 0.00 0.00 0.00 94 1018.3
20260904123349 68 318 3.0 3.0 0.00 0.00 0.00 94 1018.4
20260904122844 67 283 2.0 5.0 0.00 0.00 0.00 95 1018.6
20260904122338 66 275 3.0 5.0 0.00 0.00 0.00 96 1018.5
20260904121834 66 328 5.0 7.0 0.00 0.00 0.00 97 1018.5
20260904121330 66 283 2.0 3.0 0.00 0.00 0.00 98 1018.9
20260904120826 66 314 4.0 5.0 0.00 0.00 0.00 98 1018.7
20260904120322 66 313 1.0 2.0 0.00 0.00 0.00 98 1018.5
20260904115816 65 300 0.0 1.0 0.00 0.00 0.00 98 1018.7
20260904115312 65 246 1.0 1.0 0.00 0.00 0.00 98 1018.6
20260904114812 64 299 1.0 1.0 0.00 0.00 0.00 98 1018.6
20260904114306 64 299 1.0 1.0 0.00 0.00 0.00 98 1018.7
20260904113802 64 312 1.0 1.0 0.00 0.00 0.00 98 1018.5
20260904113300 63 281 0.0 1.0 0.00 0.00 0.00 98 1018.5
20260904112755 63 312 0.0 1.0 0.00 0.00 0.00 98 1018.6
20260904112251 63 300 0.0 0.0 0.00 0.00 0.00 98 1018.2
20260904111747 63 279 0.0 0.0 0.00 0.00 0.00 98 1018.4
20260904111242 62 285 0.0 0.0 0.00 0.00 0.00 99 1018.2
20260904110738 62 287 0.0 0.0 0.00 0.00 0.00 98 1018.3
20260904110237 61 276 0.0 0.0 0.00 0.00 0.00 98 1018.3
20260904105732 61 250 0.0 0.0 0.00 0.00 0.00 98 1018.2
20260904105227 61 220 0.0 0.0 0.00 0.00 0.00 98 1018.0
20260904104722 60 350 0.0 0.0 0.00 0.00 0.00 98 1018.0
20260904104218 60 335 0.0 0.0 0.00 0.00 0.00 98 1017.9
20260904103715 61 344 0.0 0.0 0.00 0.00 0.00 98 1018.0
20260904103209 62 344 0.0 0.0 0.00 0.00 0.00 98 1017.9
20260904102705 62 218 0.0 0.0 0.00 0.00 0.00 98 1017.7
20260904102200 61 213 0.0 0.0 0.00 0.00 0.00 98 1017.7
20260904101657 61 209 0.0 0.0 0.00 0.00 0.00 98 1017.7
20260904101152 61 222 0.0 0.0 0.00 0.00 0.00 99 1017.7
20260904100648 60 218 0.0 0.0 0.00 0.00 0.00 99 1017.8
20260904100143 59 163 0.0 0.0 0.00 0.00 0.00 98 1017.7
20260904095643 59 179 0.0 0.0 0.00 0.00 0.00 98 1017.5
20260904095137 59 240 0.0 0.0 0.00 0.00 0.00 98 1017.6
20260904094632 59 281 0.0 0.0 0.00 0.00 0.00 98 1017.6
20260904094127 59 282 0.0 0.0 0.00 0.00 0.00 98 1017.3
20260904093624 59 286 0.0 0.0 0.00 0.00 0.00 98 1017.3
20260904093124 60 281 0.0 0.0 0.00 0.00 0.00 98 1017.2
20260904092620 60 274 0.0 0.0 0.00 0.00 0.00 98 1017.3
20260904092116 60 263 0.0 0.0 0.00 0.00 0.00 98 1017.2
20260904091612 60 229 0.0 0.0 0.00 0.00 0.00 98 1017.3
20260904091111 61 239 1.0 1.0 0.00 0.00 0.00 98 1017.1
20260904090607 60 263 1.0 2.0 0.00 0.00 0.00 98 1017.3
20260904085603 61 223 0.0 1.0 0.00 0.00 0.00 98 1017.0
20260904085057 61 232 0.0 0.0 0.00 0.00 0.00 98 1017.3
20260904084553 61 233 0.0 0.0 0.00 0.00 0.00 98 1017.1